RYR3H EGCC-EICK

Flight info

Callsign RYR3H
Flight time 0h 52m
Altitude 32000
Route ASMIM1S/05L ASMIM L975 WAL L10 PENIL M144 BAGSO DCT TISMO TISMO1R
Aircraft B738/M-SDE2E3FGHIRWXY/LB1

Departure

Time 2026-05-06 16:56
Airport Manchester Airport (EGCC)

Arrival

Time 2026-05-06 17:48
Airport Cork International Airport (EICK)
Time Latitude Longitude Altitude Speed Heading
2026-05-06 16:21 53.36120 -2.26745 232 ft 0 kts 314°
2026-05-06 16:40 53.36115 -2.26736 234 ft 4 kts 314°
2026-05-06 16:40 53.36096 -2.26704 237 ft 3 kts 314°
2026-05-06 16:41 53.36081 -2.26675 237 ft 4 kts 294°
2026-05-06 16:41 53.36078 -2.26635 236 ft 4 kts 252°
2026-05-06 16:41 53.36085 -2.26607 236 ft 1 kts 242°
2026-05-06 16:41 53.36086 -2.26604 236 ft 0 kts 242°
2026-05-06 16:46 53.36085 -2.26606 236 ft 1 kts 242°
2026-05-06 16:46 53.36077 -2.26632 236 ft 4 kts 242°
2026-05-06 16:46 53.36059 -2.26690 234 ft 7 kts 237°
2026-05-06 16:46 53.36024 -2.26753 232 ft 3 kts 228°
2026-05-06 16:47 53.36022 -2.26756 232 ft 1 kts 230°
2026-05-06 16:47 53.36009 -2.26782 232 ft 4 kts 230°
2026-05-06 16:47 53.35981 -2.26831 232 ft 7 kts 213°
2026-05-06 16:47 53.35930 -2.26859 233 ft 8 kts 193°
2026-05-06 16:48 53.35872 -2.26897 233 ft 10 kts 227°
2026-05-06 16:48 53.35832 -2.26992 233 ft 10 kts 240°
2026-05-06 16:48 53.35800 -2.27083 233 ft 8 kts 235°
2026-05-06 16:48 53.35764 -2.27157 232 ft 8 kts 230°
2026-05-06 16:49 53.35729 -2.27228 232 ft 8 kts 230°
2026-05-06 16:49 53.35695 -2.27299 232 ft 8 kts 232°
2026-05-06 16:49 53.35658 -2.27377 233 ft 9 kts 230°
2026-05-06 16:49 53.35615 -2.27464 232 ft 10 kts 231°
2026-05-06 16:50 53.35568 -2.27562 232 ft 11 kts 231°
2026-05-06 16:50 53.35516 -2.27670 232 ft 12 kts 231°
2026-05-06 16:50 53.35463 -2.27790 232 ft 13 kts 249°
2026-05-06 16:50 53.35456 -2.27893 232 ft 14 kts 263°
2026-05-06 16:51 53.35373 -2.28056 232 ft 14 kts 224°
2026-05-06 16:51 53.35299 -2.28175 232 ft 15 kts 224°
2026-05-06 16:51 53.35229 -2.28304 232 ft 15 kts 231°
2026-05-06 16:51 53.35167 -2.28435 232 ft 14 kts 231°
2026-05-06 16:52 53.35105 -2.28560 232 ft 14 kts 231°
2026-05-06 16:52 53.35040 -2.28692 232 ft 15 kts 228°
2026-05-06 16:52 53.34976 -2.28809 232 ft 13 kts 226°
2026-05-06 16:52 53.34917 -2.28913 232 ft 12 kts 226°
2026-05-06 16:53 53.34857 -2.29017 232 ft 13 kts 226°
2026-05-06 16:53 53.34799 -2.29127 233 ft 13 kts 231°
2026-05-06 16:53 53.34746 -2.29235 232 ft 12 kts 230°
2026-05-06 16:53 53.34693 -2.29315 232 ft 9 kts 212°
2026-05-06 16:54 53.34633 -2.29343 234 ft 9 kts 184°
2026-05-06 16:54 53.34568 -2.29319 232 ft 10 kts 156°
2026-05-06 16:54 53.34544 -2.29219 232 ft 10 kts 69°
2026-05-06 16:54 53.34583 -2.29134 232 ft 6 kts 51°
2026-05-06 16:55 53.34614 -2.29069 232 ft 12 kts 51°
2026-05-06 16:55 53.34767 -2.28750 232 ft 66 kts 51°
2026-05-06 16:55 53.35206 -2.27845 230 ft 132 kts 50°
2026-05-06 16:55 53.35912 -2.26482 402 ft 168 kts 50°
2026-05-06 16:56 53.36639 -2.25032 1331 ft 158 kts 52°
2026-05-06 16:56 53.37317 -2.23622 2132 ft 159 kts 52°
2026-05-06 16:56 53.38016 -2.22097 2756 ft 171 kts 54°
2026-05-06 16:56 53.38860 -2.20699 3516 ft 178 kts 27°
2026-05-06 16:57 53.40183 -2.20503 3748 ft 213 kts 345°
2026-05-06 16:57 53.41416 -2.22072 3964 ft 240 kts 302°
2026-05-06 16:57 53.42020 -2.24706 4567 ft 247 kts 289°
2026-05-06 16:57 53.42669 -2.27519 4895 ft 269 kts 296°
2026-05-06 16:58 53.43491 -2.30300 5328 ft 274 kts 298°
2026-05-06 16:58 53.44385 -2.33167 6201 ft 272 kts 299°
2026-05-06 16:58 53.45239 -2.35912 7227 ft 268 kts 297°
2026-05-06 16:58 53.46077 -2.38704 8095 ft 269 kts 297°
2026-05-06 16:59 53.46840 -2.41588 8917 ft 273 kts 286°
2026-05-06 16:59 53.46909 -2.44771 9751 ft 277 kts 264°
2026-05-06 16:59 53.46585 -2.48006 10369 ft 288 kts 260°
2026-05-06 16:59 53.46180 -2.51440 10557 ft 312 kts 259°
2026-05-06 17:00 53.45741 -2.55128 10804 ft 332 kts 261°
2026-05-06 17:00 53.45316 -2.58978 11412 ft 339 kts 261°
2026-05-06 17:00 53.44858 -2.62869 12204 ft 340 kts 260°
2026-05-06 17:00 53.44420 -2.66782 13039 ft 342 kts 261°
2026-05-06 17:01 53.43994 -2.70674 13842 ft 345 kts 261°
2026-05-06 17:01 53.43558 -2.74647 14576 ft 348 kts 261°
2026-05-06 17:01 53.43115 -2.78663 15330 ft 351 kts 261°
2026-05-06 17:01 53.42666 -2.82710 16099 ft 355 kts 261°
2026-05-06 17:02 53.42211 -2.86788 16852 ft 358 kts 261°
2026-05-06 17:02 53.41750 -2.90903 17591 ft 361 kts 261°
2026-05-06 17:02 53.41281 -2.95070 18324 ft 365 kts 261°
2026-05-06 17:02 53.40808 -2.99265 18951 ft 368 kts 260°
2026-05-06 17:03 53.40330 -3.03491 19583 ft 371 kts 260°
2026-05-06 17:03 53.39856 -3.07707 20200 ft 374 kts 262°
2026-05-06 17:03 53.39812 -3.12063 20783 ft 377 kts 279°
2026-05-06 17:03 53.40537 -3.16284 21423 ft 379 kts 294°
2026-05-06 17:04 53.41889 -3.20097 22031 ft 383 kts 304°
2026-05-06 17:04 53.43450 -3.23731 22609 ft 387 kts 305°
2026-05-06 17:04 53.45054 -3.27382 23156 ft 390 kts 305°
2026-05-06 17:04 53.46669 -3.31072 23694 ft 394 kts 305°
2026-05-06 17:05 53.48279 -3.34799 24160 ft 396 kts 304°
2026-05-06 17:05 53.49872 -3.38525 24624 ft 399 kts 304°
2026-05-06 17:05 53.51489 -3.42336 25083 ft 402 kts 304°
2026-05-06 17:05 53.53107 -3.46171 25526 ft 404 kts 304°
2026-05-06 17:06 53.54739 -3.50046 25968 ft 407 kts 304°
2026-05-06 17:06 53.56381 -3.53948 26389 ft 410 kts 304°
2026-05-06 17:06 53.58034 -3.57882 26813 ft 413 kts 304°
2026-05-06 17:06 53.59656 -3.61877 27223 ft 415 kts 300°
2026-05-06 17:07 53.60536 -3.64751 27473 ft 417 kts 293°
2026-05-06 17:07 53.61724 -3.70924 28046 ft 420 kts 283°
2026-05-06 17:07 53.62103 -3.75804 28565 ft 420 kts 275°
2026-05-06 17:07 53.62275 -3.80696 29165 ft 418 kts 274°
2026-05-06 17:08 53.62440 -3.85585 29716 ft 417 kts 275°
2026-05-06 17:08 53.62627 -3.90454 30178 ft 418 kts 275°
2026-05-06 17:08 53.62760 -3.93689 30450 ft 417 kts 275°
2026-05-06 17:08 53.62963 -3.98564 30894 ft 416 kts 275°
2026-05-06 17:09 53.63157 -4.03417 31338 ft 415 kts 275°
2026-05-06 17:09 53.63346 -4.08269 31749 ft 415 kts 275°
2026-05-06 17:09 53.63533 -4.13133 32028 ft 418 kts 275°
2026-05-06 17:10 53.63986 -4.24566 32000 ft 419 kts 276°
2026-05-06 17:10 53.64265 -4.32649 32008 ft 414 kts 275°
2026-05-06 17:11 53.64599 -4.42346 32027 ft 415 kts 275°
2026-05-06 17:11 53.64939 -4.52093 32022 ft 417 kts 275°
2026-05-06 17:12 53.65273 -4.61862 32015 ft 418 kts 275°
2026-05-06 17:12 53.65598 -4.71593 32005 ft 419 kts 276°
2026-05-06 17:13 53.65915 -4.81394 31997 ft 419 kts 275°
2026-05-06 17:13 53.66227 -4.91203 32004 ft 419 kts 276°
2026-05-06 17:14 53.66561 -5.01018 32007 ft 419 kts 276°
2026-05-06 17:14 53.66878 -5.10758 32005 ft 419 kts 276°
2026-05-06 17:15 53.67174 -5.20479 32003 ft 419 kts 276°
2026-05-06 17:15 53.67453 -5.30235 31997 ft 418 kts 276°
2026-05-06 17:16 53.67729 -5.40032 32006 ft 418 kts 276°
2026-05-06 17:16 53.67157 -5.49586 32012 ft 428 kts 251°
2026-05-06 17:16 53.65728 -5.54005 31993 ft 435 kts 235°
2026-05-06 17:17 53.63668 -5.57772 32026 ft 437 kts 228°
2026-05-06 17:17 53.59370 -5.64939 31999 ft 439 kts 227°
2026-05-06 17:18 53.55026 -5.72176 31994 ft 439 kts 227°
2026-05-06 17:18 53.50707 -5.79448 31994 ft 440 kts 228°
2026-05-06 17:19 53.46401 -5.86726 31991 ft 440 kts 228°
2026-05-06 17:19 53.42114 -5.93961 31993 ft 440 kts 228°
2026-05-06 17:20 53.37791 -6.01235 31992 ft 440 kts 228°
2026-05-06 17:20 53.33468 -6.08483 31992 ft 440 kts 227°
2026-05-06 17:21 53.29143 -6.15712 31990 ft 440 kts 227°
2026-05-06 17:21 53.24846 -6.22872 31960 ft 437 kts 227°
2026-05-06 17:21 53.22705 -6.26429 31674 ft 433 kts 227°
2026-05-06 17:22 53.20592 -6.29935 31372 ft 424 kts 227°
2026-05-06 17:22 53.18504 -6.33395 30983 ft 421 kts 227°
2026-05-06 17:22 53.16437 -6.36816 30597 ft 417 kts 227°
2026-05-06 17:22 53.14384 -6.40210 30215 ft 414 kts 227°
2026-05-06 17:23 53.12345 -6.43577 29790 ft 411 kts 227°
2026-05-06 17:23 53.10349 -6.46867 29374 ft 407 kts 227°
2026-05-06 17:23 53.08351 -6.50156 28978 ft 403 kts 227°
2026-05-06 17:23 53.06370 -6.53413 28587 ft 398 kts 227°
2026-05-06 17:24 53.04410 -6.56630 28200 ft 394 kts 227°
2026-05-06 17:24 53.02466 -6.59817 27793 ft 391 kts 227°
2026-05-06 17:24 53.00544 -6.62965 27420 ft 387 kts 227°
2026-05-06 17:24 52.98632 -6.66092 27020 ft 384 kts 227°
2026-05-06 17:25 52.96734 -6.69191 26649 ft 381 kts 227°
2026-05-06 17:25 52.94875 -6.72224 26257 ft 378 kts 227°
2026-05-06 17:25 52.93008 -6.75264 25881 ft 375 kts 226°
2026-05-06 17:25 52.91150 -6.78286 25518 ft 373 kts 226°
2026-05-06 17:26 52.89305 -6.81284 25150 ft 370 kts 226°
2026-05-06 17:26 52.87471 -6.84260 24784 ft 368 kts 226°
2026-05-06 17:26 52.85648 -6.87215 24420 ft 366 kts 226°
2026-05-06 17:26 52.83839 -6.90143 24063 ft 364 kts 226°
2026-05-06 17:27 52.82034 -6.93061 23691 ft 362 kts 226°
2026-05-06 17:27 52.80261 -6.95924 23283 ft 360 kts 226°
2026-05-06 17:27 52.78486 -6.98816 22900 ft 356 kts 226°
2026-05-06 17:27 52.76719 -7.01658 22541 ft 352 kts 226°
2026-05-06 17:28 52.74967 -7.04445 22196 ft 349 kts 226°
2026-05-06 17:28 52.73233 -7.07223 21829 ft 345 kts 226°
2026-05-06 17:28 52.71517 -7.09978 21467 ft 343 kts 226°
2026-05-06 17:28 52.69815 -7.12710 21124 ft 340 kts 226°
2026-05-06 17:29 52.68130 -7.15412 20779 ft 337 kts 226°
2026-05-06 17:29 52.66476 -7.18062 20441 ft 335 kts 226°
2026-05-06 17:29 52.64814 -7.20722 20098 ft 333 kts 226°
2026-05-06 17:29 52.63175 -7.23398 19757 ft 330 kts 226°
2026-05-06 17:30 52.61530 -7.26022 19424 ft 328 kts 225°
2026-05-06 17:30 52.59883 -7.28607 19091 ft 326 kts 226°
2026-05-06 17:30 52.58282 -7.31231 18762 ft 324 kts 226°
2026-05-06 17:30 52.56693 -7.33823 18429 ft 322 kts 226°
2026-05-06 17:31 52.55109 -7.36339 18084 ft 320 kts 224°
2026-05-06 17:31 52.53490 -7.38839 17704 ft 318 kts 224°
2026-05-06 17:31 52.51890 -7.41327 17394 ft 315 kts 225°
2026-05-06 17:31 52.50316 -7.43791 17071 ft 312 kts 225°
2026-05-06 17:32 52.48755 -7.46246 16758 ft 309 kts 225°
2026-05-06 17:32 52.47207 -7.48683 16427 ft 307 kts 225°
2026-05-06 17:32 52.45672 -7.51100 16102 ft 305 kts 225°
2026-05-06 17:32 52.44148 -7.53501 15796 ft 302 kts 225°
2026-05-06 17:33 52.42638 -7.55876 15476 ft 301 kts 225°
2026-05-06 17:33 52.41152 -7.58213 15164 ft 299 kts 225°
2026-05-06 17:33 52.39653 -7.60568 14850 ft 298 kts 225°
2026-05-06 17:33 52.38164 -7.62906 14540 ft 297 kts 225°
2026-05-06 17:34 52.36676 -7.65239 14230 ft 295 kts 224°
2026-05-06 17:34 52.35195 -7.67559 13925 ft 294 kts 224°
2026-05-06 17:34 52.33721 -7.69866 13594 ft 292 kts 224°
2026-05-06 17:34 52.32255 -7.72158 13276 ft 290 kts 224°
2026-05-06 17:35 52.30804 -7.74425 12962 ft 288 kts 224°
2026-05-06 17:35 52.29378 -7.76650 12676 ft 286 kts 224°
2026-05-06 17:35 52.27937 -7.78898 12358 ft 288 kts 224°
2026-05-06 17:36 52.25042 -7.83514 11763 ft 293 kts 225°
2026-05-06 17:36 52.23532 -7.85779 11448 ft 297 kts 223°
2026-05-06 17:36 52.22020 -7.88080 11107 ft 297 kts 223°
2026-05-06 17:36 52.20534 -7.90391 10794 ft 295 kts 224°
2026-05-06 17:37 52.19055 -7.92701 10473 ft 294 kts 224°
2026-05-06 17:37 52.17585 -7.94986 10285 ft 287 kts 224°
2026-05-06 17:37 52.16180 -7.97157 10158 ft 279 kts 224°
2026-05-06 17:37 52.14791 -7.99300 10035 ft 271 kts 224°
2026-05-06 17:38 52.13593 -8.01602 9810 ft 266 kts 244°
2026-05-06 17:38 52.13010 -8.04417 9619 ft 261 kts 255°
2026-05-06 17:38 52.12606 -8.07301 9316 ft 261 kts 257°
2026-05-06 17:38 52.12236 -8.10175 9060 ft 259 kts 258°
2026-05-06 17:39 52.11871 -8.13025 8808 ft 257 kts 258°
2026-05-06 17:39 52.11503 -8.15861 8540 ft 256 kts 257°
2026-05-06 17:39 52.11126 -8.18685 8272 ft 255 kts 257°
2026-05-06 17:39 52.10753 -8.21465 8000 ft 255 kts 257°
2026-05-06 17:40 52.10370 -8.24276 7729 ft 254 kts 257°
2026-05-06 17:40 52.09988 -8.27072 7486 ft 253 kts 257°
2026-05-06 17:40 52.09606 -8.29861 7221 ft 252 kts 257°
2026-05-06 17:40 52.09229 -8.32630 6964 ft 251 kts 257°
2026-05-06 17:41 52.08855 -8.35410 6694 ft 251 kts 257°
2026-05-06 17:41 52.08474 -8.38177 6444 ft 250 kts 257°
2026-05-06 17:41 52.08090 -8.40924 6167 ft 249 kts 256°
2026-05-06 17:41 52.07700 -8.43625 5889 ft 249 kts 253°
2026-05-06 17:42 52.07128 -8.46294 5574 ft 250 kts 248°
2026-05-06 17:42 52.06499 -8.48931 5280 ft 250 kts 249°
2026-05-06 17:42 52.05888 -8.51542 4991 ft 243 kts 249°
2026-05-06 17:42 52.05311 -8.54049 4839 ft 228 kts 249°
2026-05-06 17:43 52.04781 -8.56371 4707 ft 212 kts 249°
2026-05-06 17:43 52.04225 -8.58473 4568 ft 194 kts 233°
2026-05-06 17:43 52.03173 -8.59717 4113 ft 194 kts 190°
2026-05-06 17:43 52.01923 -8.59439 4066 ft 180 kts 163°
2026-05-06 17:44 52.00693 -8.58839 3832 ft 185 kts 165°
2026-05-06 17:44 51.99460 -8.58182 3586 ft 186 kts 163°
2026-05-06 17:44 51.98243 -8.57466 3322 ft 186 kts 163°
2026-05-06 17:44 51.97043 -8.56766 3044 ft 180 kts 163°
2026-05-06 17:45 51.95901 -8.56087 2827 ft 170 kts 162°
2026-05-06 17:45 51.94811 -8.55491 2604 ft 161 kts 161°
2026-05-06 17:45 51.93776 -8.54860 2398 ft 157 kts 164°
2026-05-06 17:45 51.92767 -8.54250 2176 ft 157 kts 161°
2026-05-06 17:46 51.91758 -8.53635 1938 ft 152 kts 162°
2026-05-06 17:46 51.90812 -8.53089 1768 ft 139 kts 162°
2026-05-06 17:46 51.89913 -8.52544 1580 ft 141 kts 162°
2026-05-06 17:46 51.88979 -8.51986 1359 ft 144 kts 162°
2026-05-06 17:47 51.88036 -8.51427 1163 ft 145 kts 161°
2026-05-06 17:47 51.87081 -8.50863 953 ft 146 kts 161°
2026-05-06 17:47 51.86132 -8.50316 764 ft 144 kts 161°
2026-05-06 17:47 51.85212 -8.49761 597 ft 138 kts 160°
2026-05-06 17:48 51.84350 -8.49243 505 ft 126 kts 160°
2026-05-06 17:48 51.83853 -8.48950 503 ft 23 kts 160°
2026-05-06 17:48 51.83778 -8.48888 503 ft 8 kts 115°
2026-05-06 17:48 51.83787 -8.48799 503 ft 8 kts 71°
2026-05-06 17:49 51.83805 -8.48715 503 ft 8 kts 70°
2026-05-06 17:49 51.83813 -8.48681 503 ft 0 kts 70°
2026-05-06 17:49 51.83806 -8.48711 503 ft 6 kts 70°
2026-05-06 17:50 51.83784 -8.48815 503 ft 13 kts 71°
2026-05-06 17:50 51.83762 -8.48918 503 ft 0 kts 75°
2026-05-06 17:50 51.83779 -8.48905 503 ft 4 kts 360°
2026-05-06 17:50 51.83827 -8.48925 503 ft 10 kts 335°
2026-05-06 17:51 51.83896 -8.48976 503 ft 11 kts 338°
2026-05-06 17:51 51.83968 -8.49015 503 ft 11 kts 340°
2026-05-06 17:51 51.84039 -8.49056 503 ft 12 kts 340°
2026-05-06 17:51 51.84135 -8.49112 503 ft 17 kts 340°
2026-05-06 17:52 51.84240 -8.49173 503 ft 14 kts 350°
2026-05-06 17:52 51.84318 -8.49103 503 ft 13 kts 51°
2026-05-06 17:52 51.84359 -8.48992 503 ft 10 kts 46°
2026-05-06 17:52 51.84423 -8.49001 503 ft 9 kts 338°
2026-05-06 17:53 51.84481 -8.49037 503 ft 9 kts 340°
2026-05-06 17:53 51.84539 -8.49070 503 ft 8 kts 340°
2026-05-06 17:53 51.84590 -8.49100 503 ft 8 kts 340°
2026-05-06 17:53 51.84644 -8.49132 503 ft 9 kts 340°
2026-05-06 17:54 51.84702 -8.49166 503 ft 9 kts 340°
2026-05-06 17:54 51.84763 -8.49198 503 ft 9 kts 347°
2026-05-06 17:54 51.84809 -8.49203 503 ft 6 kts 27°
2026-05-06 17:54 51.84824 -8.49142 503 ft 6 kts 72°
2026-05-06 17:55 51.84839 -8.49077 503 ft 5 kts 70°
2026-05-06 17:55 51.84843 -8.49058 503 ft 0 kts 69°
2026-05-06 17:55 51.84844 -8.49056 503 ft 0 kts 69°